Cloud_Cover
53 100 100 96 99 70 20 93 100 100 100 100 100 98 7 5 5 0 2 4 9 19 84 5 0 0 0 0 0 0 0 0 0 0 5 23 84 95 100 100 100 100 77 44
100 81 100 100 47 7 23 5 14 90 100 100 99 12 4 0 0 4 34 100 37 6 5 0 2 0 0 0 0 0 0 0 0 1 5 5 5 11 12 77 67 12 19 23
75 87 21 100 98 66 51 45 100 51 98 94 5 5 5 0 0 0 5 92 100 100 100 97 20 5 0 0 0 0 0 0 0 0 0 2 4 5 22 5 5 4 4 0
28 86 100 6 49 100 100 100 90 55 100 99 87 36 6 0 0 4 4 6 100 100 100 48 5 5 5 0 0 0 0 0 0 0 0 0 0 0 0 0 0 0 0 0
100 100 83 63 91 100 100 100 100 100 99 100 57 6 5 5 5 5 5 7 100 100 56 20 8 1 0 0 0 0 0 0 0 0 0 0 0 0 0 0 0 0 0 0
100 100 100 94 100 100 100 100 100 100 100 100 100 63 52 57 6 0 5 25 100 100 8 7 5 5 9 5 5 0 0 0 0 0 0 0 0 0 0 0 0 0 0 0
100 100 100 90 100 98 70 56 100 100 100 100 100 100 100 65 13 0 4 5 75 100 100 50 10 31 16 5 4 0 2 0 0 0 0 0 0 0 0 0 0 0 0 0
100 100 100 100 100 100 97 90 100 100 100 100 100 100 100 36 4 0 5 5 100 100 93 21 39 11 17 5 5 5 5 4 0 0 0 0 0 0 0 0 0 0 0 0
100 100 100 100 100 100 64 99 100 100 100 100 100 100 100 28 5 5 5 5 29 99 100 98 100 100 99 84 5 5 24 5 1 0 0 0 0 0 0 0 0 0 0 0
100 100 100 100 100 100 100 100 100 100 100 100 100 100 100 99 15 82 6 22 70 100 100 100 100 100 100 100 6 35 5 5 5 5 5 5 0 0 0 0 0 0 0 0
100 100 100 100 100 100 100 100 100 100 100 100 100 100 100 100 80 99 20 12 91 99 100 100 100 100 100 100 94 92 5 32 5 5 5 5 5 5 5 2 0 0 0 1
100 100 100 100 100 100 100 100 100 100 100 100 100 100 100 98 72 100 100 14 42 94 100 100 100 100 86 96 84 94 35 42 5 5 5 7 12 5 33 5 5 5 5 5
100 100 100 100 100 100 100 100 100 100 100 100 100 100 100 100 100 100 100 87 98 71 76 99 80 100 100 100 100 100 100 65 99 100 98 39 30 33 98 89 31 33 8 50
100 100 100 100 100 100 100 100 100 100 100 100 100 100 100 100 100 82 100 100 100 100 93 100 100 100 100 100 100 100 100 59 89 97 62 96 14 7 5 20 65 100 100 100
100 100 100 100 100 100 100 100 100 100 100 100 100 100 100 100 100 100 65 72 79 100 100 100 100 100 100 93 100 100 100 100 100 56 70 92 95 70 71 76 96 100 100 100
100 100 100 100 100 100 100 100 100 100 100 100 100 100 100 100 100 94 100 100 100 96 59 88 100 100 100 100 100 100 100 100 100 100 100 100 100 100 100 94 49 100 100 100
100 100 100 100 100 100 100 100 100 100 100 100 100 100 100 100 100 100 100 96 100 100 100 100 89 100 100 100 100 100 100 100 100 100 100 100 100 100 100 100 100 100 52 50
100 100 100 100 100 100 100 100 100 100 100 100 100 90 100 100 100 100 100 100 100 100 100 100 100 100 100 100 100 100 100 100 100 100 100 100 100 100 100 100 100 100 100 100
100 100 100 100 100 100 100 100 100 100 100 100 100 100 100 92 100 100 100 100 100 100 100 99 100 100 100 100 100 100 99 100 100 100 100 100 100 100 100 100 100 100 100 100
100 100 100 100 100 100 100 100 100 100 100 100 100 100 100 100 100 100 100 100 100 100 100 100 78 98 100 100 100 100 100 100 100 100 100 100 100 100 100 100 100 100 100 98
100 100 100 100 100 100 100 100 100 100 100 100 100 100 100 100 64 57 100 100 100 100 100 100 100 96 98 100 100 100 100 100 100 100 88 100 100 100 100 100 100 100 100 100
100 100 100 100 100 100 100 100 100 100 100 100 100 100 100 36 40 78 93 92 100 100 100 100 100 100 100 78 71 96 100 100 100 100 92 100 100 100 100 100 100 100 100 100
100 100 100 100 100 100 100 100 100 100 100 100 100 100 100 100 62 5 77 96 94 100 100 100 100 100 100 100 100 97 70 100 100 100 100 100 100 100 100 100 100 100 100 100
100 100 100 100 100 100 100 100 100 100 100 100 100 100 93 51 86 73 5 49 100 100 99 100 100 100 100 100 100 100 100 100 100 100 100 100 100 100 100 100 100 100 100 100
100 43 5 5 15 56 85 55 98 100 100 100 100 100 100 87 52 12 5 5 84 100 100 97 100 100 100 100 100 100 100 100 100 100 100 100 100 100 100 100 100 100 100 100
81 69 52 18 13 52 69 54 54 57 61 87 94 99 99 97 56 84 37 10 5 6 52 100 100 100 100 100 100 100 100 100 100 100 100 100 100 100 100 100 100 100 100 100
44 71 100 75 98 74 92 65 33 70 84 97 95 50 56 75 59 31 46 63 18 11 9 97 100 87 100 100 95 100 100 100 100 100 100 100 100 100 100 100 100 100 100 100